Regional Weather Roundup
Issued by NWS

Home | Current Version | Previous Version | Graphics & Text | Print | Product List | Glossary On
Versions: 1 2 3 4 5 6 7 8 9 10 11 12 13 14 15 16 17 18 19 20 21 22 23 24 25 26 27 28 29 30 31 32 33 34 35 36 37 38 39 40 41 42 43 44 45 46 47 48 49 50
000
ASUS43 KFSD 190410
RWRSD

WEATHER ROUNDUP FOR SOUTH DAKOTA
NATIONAL WEATHER SERVICE SIOUX FALLS SD
1100 PM CDT FRI APR 18 2014

NOTE: "FAIR" INDICATES FEW OR NO CLOUDS BELOW 12,000 FEET WITH NO
SIGNIFICANT WEATHER AND/OR OBSTRUCTIONS TO VISIBILITY.


SDZ001>005-009-010-012>017-190500-
NORTHWEST AND NORTH CENTRAL SOUTH DAKOTA

CITY           SKY/WX    TMP DP  RH WIND       PRES   REMARKS
BUFFALO          N/A     49  40  71 NW21      29.68R
FAITH            N/A     53  41  63 NW18      29.66R
MOBRIDGE       CLOUDY    62  41  46 S26G35    29.55S
$$

SDZ012>016-024>037-041>051-057-063-072>074-190500-
SOUTHWEST AND SOUTH CENTRAL SOUTH DAKOTA

CITY           SKY/WX    TMP DP  RH WIND       PRES   REMARKS
RAPID CTY ARPT CLOUDY    57  39  51 N31G38    29.68R
PIERRE         CLOUDY    68  42  38 S25G39    29.61F
CUSTER         CLOUDY    60  31  33 W18G25    29.81R
ELLSWORTH AFB  MOCLDY    57  40  54 N26G33    29.68R
PHILIP         MOCLDY    68  39  34 SW13      29.64R
PINE RIDGE     CLOUDY    71  35  26 SW18G24   29.76R
SPEARFISH      FAIR      50  39  66 NW9       29.78R
WINNER         FAIR      68  41  37 S33G46    29.71F
$$

SDZ004>011-016>023-039-040-190500-
NORTHEAST SOUTH DAKOTA

CITY           SKY/WX    TMP DP  RH WIND       PRES   REMARKS
ABERDEEN       PTCLDY    56  39  53 SE26G35   29.72F
WATERTOWN      CLOUDY    52  37  56 SE21G31   29.87F
SISSETON         N/A     45  36  70 S25G31    29.89F
$$

SDZ017-020-022-023-036>040-048>070-190500-
SOUTHEAST SOUTH DAKOTA

CITY           SKY/WX    TMP DP  RH WIND       PRES   REMARKS
SIOUX FALLS    CLOUDY    58  38  47 S25G32    29.94S
HURON          CLOUDY    61  41  47 S20G29    29.77F
CHAMBERLAIN      N/A     66  43  43 S25G31    29.72F
MITCHELL       CLOUDY    61  42  49 S25G36    29.83F
YANKTON        MOCLDY    61  37  41 S23       29.93S
$$

ABBREVIATIONS USED IN REMARKS
   TC - TEMPERATURE IN CELSIUS
  WCI - WIND CHILL INDEX
   HX - HEAT INDEX
  VSB - VISIBILITY




USA.gov is the U.S. government's official web portal to all federal, state and local government web resources and services.